Location: Cedar Brake
(32.2526°N, 97.8459°W)
Time: 20:42:51
(UTC+00:00)

Meteor 1-28 Rocket - Pass Details

Date: 22 April 2026
Orbit: 420 x 430 km, 97.6° (Epoch: 21 May)

Event Time Altitude Azimuth Distance (km) Brightness Sun altitude
Rises 11:20:34 0° 175° (S) 2,382 6.4 -7.6°
Reaches altitude 10° 11:22:35 10° 179° (S) 1,518 5.4 -7.2°
Maximum altitude 11:25:47 59° 259° (W) 498 2.8 -6.6°
Drops below altitude 10° 11:29:00 10° 340° (NNW) 1,522 5.6 -5.9°
Sets 11:31:02 0° 344° (NNW) 2,390 6.6 -5.5°
